DECAYED

STARLINK-1052, 44757 (Decayed)

Orbit data source: Space-Track

STARLINK-1052, 44757 was a payload satellite owned by SpaceX/Seattle (US) in LEO that was launched on Mon, 11 Nov 2019 UTC via an FALCON 9 launch vehicle from the Air Force Eastern Test Range (AFETR). Payload-class satellites include a variety of spacecraft equipped with specific instruments for various scientific and technological missions. These include communications satellites like Starlink; space stations such as the ISS; scientific satellites like the Hubble; Earth observation satellites from companies like Planet Labs, Umbra, and HawkEye 360; GPS; miniature CubeSats for education and research; and military/defense satellites.

Not visible in the next 10 days
Identifier
44757, 2019-074AW
Orbit
Decayed
Country
Flag of USUS
Related business
Manufacturer
SpaceX/Seattle
Mission
Decayed Commercial Communications
Bus & Motor
STARLINK, Unknown motor
Mass
260 kg wet, ~248 kg dry
Launch date (UTC)
2019-11-11 (7 years ago)
Launch vehicle
FALCON 9
Launch site
Air Force Eastern Test Range (AFETR)
Object type
Payload
Rocket body
Debris
Shape & HBR
Box + 1 Pan, 10.1 m
Radar Cross Section
13.562 m², Large (>1 m²)

Expand to show TLE details & history
Last TLE update: 1 year ago

TLE from 1 year ago
0 STARLINK-1052
1 44757U 19074AW  25075.06478271  .06374108  12160-4  11270-2 0  9998
2 44757  53.0108 268.5845 0002187 301.9901 152.9561 16.31961354296099
Epoch: 2025-03-16T01:33Z
TLE epoch observation values (Epoch: 2025-03-16T01:33:17.226Z)
Latitude
52.88519°
Longitude
169.57479°
Altitude
194.964 km
Speed
7.795 km/s
True Right ascension
00h 27m 11s
True Declination
52° 42' 19"
Sunlit
Object was in daylight at epoch
Visualization orbit readout
Latitude
Unknown
Longitude
Unknown
Altitude
Unknown
Speed
Unknown
Apparent Right ascension
Unknown
Apparent Declination
Unknown
Sunlit
N/A
Visualization observer readout
Local Sidereal Time
20:16:58
Azimuth
Unknown
Elevation
Unknown
Doppler factor
Unknown
Orbital elements
Apogee altitude
189.003 km
Perigee altitude
186.131 km
Semi-major axis
6,565.704 km
Eccentricity
0.00022
Inclination
53.0108°
RAAN
268.5845°
Arg. of periapsis
301.9901°
True anomaly
152.96749°
Mean anomaly
152.9561°
Eccentric anomaly
152.9618°
Mean motion
4.07963 °/min
Orbital period
88.24 mins
BSTAR
0.001127
Loading maneuver chart data...
Computing Atmospheric mass density...

Documentation

Showing up to 5 results
|